Tracking 19796 objects as of 19-Jul-2019
HD Live streaming from Space Station
objects crossing your sky now

COSMOS 1275 DEB

Track COSMOS 1275 DEB now!
10-day predictions


NORAD ID: 42166
Int'l Code: 1981-053SE
Perigee: 840.7 km
Apogee: 1,065.9 km
Inclination: 82.9 °
Period: 104.0 minutes
Semi major axis: 7324 km
RCS: Unknown
Launch date: June 4, 1981
Source: Commonwealth of Independent States (former USSR) (CIS)
Launch site: PLESETSK MISSILE AND SPACE COMPLEX (PKMTR)

Note: This is SATELLITE DEBRIS
aabbcc
Your satellite tracking list
Your tracking list is empty




NASA's NSSDC Master Catalog

Two Line Element Set (TLE):
1 42166U 81053SE  19199.25688608  .00000489  00000-0  38219-3 0  9995
2 42166  82.8943  20.0108 0153696 201.0109 158.4696 13.85009664285263
Source of the keplerian elements: AFSPC